www.pogodaiklimat.ru

АРХИВ ПОГОДЫ в Чикаго

Время (UTC), дата Ветер
(напр.,м/с)
 
Видим.   Явления Облачность Т
(С)
Тd
(С)
f
(%)
Тe
(С)
Тes
(С)
Комфортность

P
(гПа)

Po
(гПа)
Тmin
(С)
Tmax
(С)
R
(мм)
SD
(см)
00:51 19.08 З  16 км    2/2 1500 м
[верхняя] 
+23.9  +17.8  69  +28  +28  душно  1011.7  987.9         
01:51 19.08 ЮЗ  16 км    2/0 2250 м
[средняя] 
+22.8  +18.3  76  +28  +28  душно  1012.3  988.6         
02:51 19.08 З  16 км    2/0 2250 м
[средняя] 
+22.2  +18.3  79  +27  +27  душно  1012.4  988.6         
03:51 19.08   16 км    2/0 2250 м
[средняя] 
+21.1  +18.3  84  +25  +25  комфорт  1012.9  988.9         
04:51 19.08   16 км    2/0 2250 м
[средняя] 
+20.6  +18.3  87  +24  +24  комфорт  1013.1  989.3  +20.6  +26.1     
05:51 19.08   16 км    5/0 2400 м
[средняя] 
+20.6  +18.3  87  +24  +24  комфорт  1013.0  989.3         
06:51 19.08   16 км    5/0 2250 м
[средняя] 
+20.0  +18.3  90  +23  +23  комфорт  1013.2  989.3         
07:51 19.08   16 км    8/0 2250 м
[средняя] 
+20.6  +18.9  90  +24  +24  комфорт  1013.6  989.9         
08:51 19.08   16 км    5/0 2250 м
[средняя] 
+20.6  +18.3  87  +24  +24  комфорт  1013.9  990.3         
09:51 19.08   16 км    5/0 2250 м
[средняя] 
+20.0  +18.3  90  +23  +23  комфорт  1014.7  990.9         
10:51 19.08   16 км    5/2 1140 м
[средняя] 
+20.6  +18.9  90  +24  +24  комфорт  1015.1  991.2  +20.0  +21.1     
11:51 19.08   16 км    8/2 1200 м
[средняя] 
+23.3  +18.9  76  +30  +30  очень
душно 
1015.7  991.9         
12:51 19.08 С  16 км    5/2 1200 м
[средняя] 
+25.0  +19.4  71  +30  +32  душно  1015.6  991.6         
13:51 19.08 нст  16 км    5/2 1200 м
[средняя] 
+26.7  +18.9  62  +32  +35  очень
душно 
1015.8  991.9         
14:51 19.08 СВ  16 км    8/5 1380 м
[средняя] 
+27.2  +18.9  60  +32  +35  очень
душно 
1015.9  992.2         
15:51 19.08 СВ  16 км    8/5 960 м
[средняя] 
+27.2  +19.4  62  +33  +37  очень
душно 
1016.2  992.2         
16:51 19.08 В  16 км    8/8 960 м
[средняя] 
+27.2  +20.0  65  +33  +36  очень
душно 
1016.1  992.2  +20.6  +27.8     
17:51 19.08 В  16 км    8/5 1080 м
[средняя] 
+28.9  +20.0  59  +35  +39  очень
душно 
1015.8  991.9         
18:51 19.08 В  16 км    8/5 1050 м
[средняя] 
+28.3  +20.0  61  +35  +38  очень
душно 
1015.4  991.6         
19:51 19.08 СВ  16 км    8/8 1110 м
[средняя] 
+27.8  +20.0  63  +34  +36  очень
душно 
1015.0  991.2         
20:51 19.08 В  16 км    8/5 1110 м
[средняя] 
+27.2  +20.0  65  +33  +35  очень
душно 
1015.2  991.2         
21:51 19.08 В  16 км    8/5 1110 м
[средняя верхняя] 
+27.8  +20.6  65  +35  +36  очень
душно 
1014.9  990.9         
22:51 19.08 В  16 км    8/5 1170 м
[верхняя] 
+26.7  +20.0  67  +33  +33  очень
душно 
1014.9  990.9  +26.7  +29.4     
23:51 19.08 В  16 км    8/5 1170 м
[верхняя] 
+25.6  +20.0  71  +31  +31  очень
душно 
1015.0  991.2         
00:51 20.08 В  16 км    8/5 1200 м
[средняя верхняя] 
+25.0  +20.0  74  +31  +31  очень
душно 
1015.5  991.6         
01:51 20.08 В  16 км    8/8 1230 м
[средняя] 
+25.0  +20.6  77  +31  +31  очень
душно 
1015.7  991.9         
02:51 20.08 В  16 км  слабый дождь  10/10 1200 м  +24.4  +21.1  82  +31  +31  очень
душно 
1015.8  991.9         
03:51 20.08 В  16 км    2/2 1800 м  +23.9  +21.7  88  +31  +31  очень
душно 
1015.6  991.9         
04:51 20.08 В  16 км    2/2 1800 м  +23.9  +21.7  88  +31  +31  очень
душно 
1015.5  991.9  +23.9  +26.7     
05:51 20.08   16 км    2/2 1800 м  +23.3  +21.7  91  +32  +32  очень
душно 
1015.5  991.6         
06:51 20.08   16 км    5/2 1500 м
[верхняя] 
+22.8  +21.1  90  +30  +30  очень
душно 
1015.7  991.9         
07:51 20.08 СЗ  13 км    5/2 1500 м
[верхняя] 
+22.2  +21.1  93  +29  +29  очень
душно 
1016.1  992.2         
08:51 20.08   13 км    2/2 1500 м
[верхняя] 
+21.7  +21.1  96  +28  +28  душно  1015.3  991.6         
09:51 20.08   13 км    5/5 690 м
[верхняя] 
+21.7  +21.1  96  +28  +28  душно  1014.7  990.9         
10:51 20.08 С  13 км    8/5 780 м
[верхняя] 
+22.2  +21.1  93  +29  +29  очень
душно 
1015.4  991.6  +21.7  +23.9     
11:51 20.08   11 км    10/2 780 м
[верхняя] 
+23.3  +22.2  94  +32  +32  очень
душно 
1015.5  991.6         
12:51 20.08 ЮЗ  10 км  дымка  10/2 300 м
[верхняя] 
+23.9  +21.7  88  +31  +32  очень
душно 
1015.7  991.9         
13:51 20.08 Ю  11 км    10/2 1500 м
[верхняя] 
+24.4  +22.2  88  +32  +35  очень
душно 
1014.8  990.9         
14:51 20.08   16 км    10/2 1650 м
[средняя] 
+24.4  +22.8  91  +32  +36  очень
душно 
1014.6  990.6         
15:16 20.08 ЮЗ  13 км  гроза  10/5 1140 м
[средняя] 
+24.4  +22.8  91  +32  +34  очень
душно 
  990.9         
15:51 20.08 З  4
{12} 
6 км  гроза с дождем, дымка  10/8 420 м
[средняя] 
+22.8  +21.1  90  +30  +31  очень
душно 
1015.2  991.2         
16:27 20.08   8 км  гроза со слабым дождем, дымка  10/8 450 м
[средняя] 
+21.7  +20.0  90  +27  +28  душно             
16:48 20.08 В  10 км  слабый дождь, дымка  10/2 1200 м
[средняя] 
+22.0  +20.0  88  +28  +31  душно    990.6         
16:51 20.08 В  10 км  слабый дождь, дымка  10/2 1200 м
[средняя] 
+21.7  +20.0  90  +27  +30  душно  1014.4  990.6  +21.7  +24.4  5.8   
17:13 20.08 В  4 км  дождь, дымка  10/8 1140 м
[средняя] 
+21.7  +19.4  87  +27  +28  душно             
17:31 20.08   10 км  дымка  10/2 450 м
[средняя] 
+21.7  +20.0  90  +27  +33  душно    991.2         
17:51 20.08 В  13 км    10/2 450 м
[средняя] 
+22.2  +20.0  87  +28  +32  душно  1015.0  991.2         
18:51 20.08 ЮВ  14 км  слабый дождь  10/2 210 м
[средняя] 
+22.2  +20.0  87  +28  +32  душно  1015.1  991.2         

 

Местоположение метеостанции Chicago-O`Hare International Airport: широта 41.9797 долгота -87.9044 высота над уровнем моря 203 м.

В архиве по умолчанию представлена погода в Чикаго за последние 1-2 суток. Обновление информации о фактической погоде в базе происходит ежечасно! Архивные данные за месяц целиком и за предыдущие месяцы Вы можете получить, выбрав интересующий диапазон дат из раскрывающегося списка и нажав кнопку "Ввод!".

Внимание! Архив погоды МЕТАР в базе сайта в настоящее время начинается c 1 января 2011 г. Нет смысла пытаться выбрать более раннюю дату.

Внимание! Время в таблицах - всемирное. Для получения местного времени необходимо прибавить поправку, которая в Чикаго равна -6 ч.

Ветер - указаны скорость ветра в м/с и направление, откуда дует ветер: С - северный, СВ - северо-восточный, В - восточный, ЮВ - юго-восточный, Ю - южный, ЮЗ - юго-западный, З - западный, СЗ - северо-западный.
Видимость - горизонтальная дальность видимости в метрах или километрах. При видимости от 1 до 10 км при отсутствии осадков обычно наблюдается дымка, при ухудшении видимости до 1 км и менее - туман. В сухую погоду видимость может ухудшаться дымом, пылью или мглою.
Атмосферные явления - указаны явления, наблюдавшиеся в указанный момент времени.
Облачность - указаны через наклонную черту верхняя и нижняя облачность в баллах и высота нижней границы облаков в метрах. Внимание: облачность, как и прочие метеорологические величины в США измеряются автоматическими метеостанциями. Указанные значения в баллах носят условный характер и показывают процент времени, в течение которого, в среднем, лазерный луч высотомера отражался от облаков обратно.
T - Температура воздуха - температура, измеренная на высоте 2 м над землей.
Td - Температура точки росы - температура, при понижении до которой содержащийся в воздухе водяной пар достигнет насыщения.
f - Относительная влажность воздуха - влажноcть воздуха, измеренная на высоте 2 м над землей.
Te - Эффективная температура - температура, которую ощущает одетый по сезону человек в тени. Характеристика душности погоды. При расчете учитывается влияние влажности воздуха и скорости ветра на теплоощущения человека.
Tes - Эффективная температура на солнце - температура, которую ощущает человек, с поправкой на солнечный нагрев. Характеристика знойности погоды. Зависит от высоты солнца над горизонтом, облачности и скорости ветра. Ночью, в пасмурную погоду, а также при ветре 12 м/с и более поправка равна нулю.
P - Атмосферное давление - приведенное к уровню моря атмосферное давление.
Po - Атмосферное давление - измеренное на уровне метеостанции атмосферное давление.
Tmin - Минимальная температура - минимум температуры воздуха на высоте 2 м над землей.
Tmax - Максимальная температура - максимум температуры воздуха на высоте 2 м над землей.
R - Количество осадков - Количество выпавших осадков за 3 или 6 часов, мм.
SD - Снежный покров - Высота снежного покрова, см.